Soldotna, AK

12:24 AM AKDT on September 27, 2016 (GMT -0800)
Soldotna

Weather History for PASX - November, 2012

Change the Weather History Date:

Friday, November 16, 2012

  Actual Average Record
Temperature  
Mean Temperature 8 °F -  
Max Temperature 19 °F 28 °F 45 °F (1967)
Min Temperature -4 °F 13 °F -20 °F (1956)
Degree Days  
Heating Degree Days 56    
Moisture  
Dew Point 6 °F    
Average Humidity 87    
Maximum Humidity 100    
Minimum Humidity 66    
Precipitation  
Precipitation 0.00 in - - ()
Sea Level Pressure  
Sea Level Pressure 29.59 in    
Wind  
Wind Speed 3 mph (ENE)    
Max Wind Speed 7 mph    
Max Gust Speed -    
Visibility 9 miles    
Events      
Averages and records for this station are not official NWS values.
T = Trace of Precipitation, MM = Missing Value Source: NWS Daily Summary

Daily Weather History Graph

Daily Weather History Graph

Search for Another Location

Airport or City:

Trip Planner

Search our weather history database for the weather conditions in past years. The results will help you decide how hot, cold, wet, or windy it might be!

Date:

Astronomy

Nov. 16, 2012 Rise Set
Actual Time 9:09 AM AKST 4:27 PM AKST
Civil Twilight 8:18 AM AKST 5:18 PM AKST
Nautical Twilight 7:25 AM AKST 6:11 PM AKST
Astronomical Twilight 6:35 AM AKST 7:01 PM AKST
Moon 12:27 PM AKST (11/16) 7:28 PM AKST (11/16)
Length of Visible Light 8h 59m
Length of Day
7h 18m
Waxing Crescent, 13% of the Moon is Illuminated
Nov 16
Waxing Crescent
Nov 20
First Quarter
Nov 28
Full
Dec 6
Last Quarter
Dec 12
New

Hourly Weather History & Observations

Time (AKST) Temp. Windchill Dew Point Humidity Pressure Visibility Wind Dir Wind Speed Gust Speed Precip Events Conditions
12:16 AM 17.6 °F 10.7 °F 15.8 °F 93% 29.60 in 10.0 mi East 4.6 mph - N/A   Clear
12:36 AM 19.4 °F 12.8 °F 17.6 °F 93% 29.60 in 10.0 mi East 4.6 mph - N/A   Clear
12:56 AM 19.4 °F 14.3 °F 17.6 °F 93% 29.61 in 10.0 mi ENE 3.5 mph - N/A   Clear
1:16 AM 19.4 °F 14.3 °F 17.6 °F 93% 29.61 in 10.0 mi NE 3.5 mph - N/A   Clear
1:36 AM 17.6 °F 10.7 °F 14.0 °F 86% 29.61 in 10.0 mi East 4.6 mph - N/A   Clear
1:56 AM 17.6 °F 10.7 °F 15.8 °F 93% 29.62 in 10.0 mi ENE 4.6 mph - N/A   Clear
2:16 AM 14.0 °F 6.5 °F 12.2 °F 93% 29.62 in 10.0 mi ENE 4.6 mph - N/A   Clear
2:36 AM 17.6 °F 12.3 °F 15.8 °F 93% 29.62 in 10.0 mi ENE 3.5 mph - N/A   Clear
2:56 AM 14.0 °F 5.1 °F 12.2 °F 93% 29.62 in 10.0 mi East 5.8 mph - N/A   Clear
3:16 AM 17.6 °F 10.7 °F 17.6 °F 100% 29.63 in 10.0 mi ENE 4.6 mph - N/A   Clear
3:36 AM 14.0 °F 8.2 °F 12.2 °F 93% 29.63 in 10.0 mi East 3.5 mph - N/A   Clear
3:56 AM 15.8 °F 8.6 °F 14.0 °F 93% 29.63 in 10.0 mi ENE 4.6 mph - N/A   Clear
4:16 AM 10.4 °F 4.0 °F 8.6 °F 92% 29.63 in 10.0 mi ESE 3.5 mph - N/A   Clear
4:36 AM 14.0 °F 6.5 °F 12.2 °F 93% 29.64 in 10.0 mi East 4.6 mph - N/A   Clear
4:56 AM 14.0 °F 6.5 °F 10.4 °F 86% 29.63 in 10.0 mi ENE 4.6 mph - N/A   Clear
5:16 AM 12.2 °F - 10.4 °F 92% 29.64 in 10.0 mi Calm Calm - N/A   Clear
5:36 AM 10.4 °F 2.2 °F 6.8 °F 85% 29.64 in 10.0 mi ENE 4.6 mph - N/A   Clear
5:56 AM 8.6 °F -1.3 °F 3.2 °F 79% 29.64 in 10.0 mi East 5.8 mph - N/A   Clear
6:16 AM 12.2 °F 6.1 °F 10.4 °F 92% 29.65 in 10.0 mi ENE 3.5 mph - N/A   Clear
6:36 AM 6.8 °F -2.0 °F 3.2 °F 85% 29.64 in 10.0 mi East 4.6 mph - N/A   Clear
6:56 AM 10.4 °F -0.4 °F 8.6 °F 92% 29.64 in 10.0 mi East 6.9 mph - N/A   Clear
7:16 AM 8.6 °F - 5.0 °F 85% 29.64 in 10.0 mi Calm Calm - N/A   Clear
7:36 AM 6.8 °F - 1.4 °F 79% 29.64 in 10.0 mi Calm Calm - N/A   Clear
7:56 AM 8.6 °F - 5.0 °F 85% 29.64 in 10.0 mi Calm Calm - N/A   Clear
8:16 AM 6.8 °F - 1.4 °F 79% 29.64 in 10.0 mi Calm Calm - N/A   Clear
8:36 AM 1.4 °F -6.2 °F -5.8 °F 72% 29.64 in 10.0 mi East 3.5 mph - N/A   Clear
8:56 AM 6.8 °F - 5.0 °F 92% 29.64 in 10.0 mi Calm Calm - N/A   Clear
9:16 AM 3.2 °F -4.2 °F -4.0 °F 72% 29.64 in 10.0 mi ENE 3.5 mph - N/A   Clear
9:36 AM 3.2 °F - -2.2 °F 78% 29.64 in 8.0 mi Calm Calm - N/A   Clear
9:56 AM 3.2 °F - -2.2 °F 78% 29.64 in 2.5 mi Calm Calm - N/A   Partly Cloudy
10:16 AM 5.0 °F - -0.4 °F 78% 29.64 in 7.0 mi Calm Calm - N/A   Clear
10:36 AM 3.2 °F -4.2 °F -0.4 °F 85% 29.64 in 4.0 mi ENE 3.5 mph - N/A   Clear
10:56 AM 6.8 °F -2.0 °F 3.2 °F 85% 29.64 in 1.0 mi ENE 4.6 mph - N/A   Clear
11:16 AM 8.6 °F 2.0 °F 8.6 °F 100% 29.63 in 2.0 mi ENE 3.5 mph - N/A   Clear
11:36 AM 8.6 °F 2.0 °F 8.6 °F 100% 29.63 in 9.0 mi ENE 3.5 mph - N/A   Clear
11:56 AM 10.4 °F 2.2 °F 6.8 °F 85% 29.62 in 10.0 mi East 4.6 mph - N/A   Clear
12:16 PM 12.2 °F - 12.2 °F 100% 29.62 in 10.0 mi Calm Calm - N/A   Clear
12:36 PM 12.2 °F 6.1 °F 10.4 °F 92% 29.62 in 9.0 mi East 3.5 mph - N/A   Clear
12:56 PM 14.0 °F - 12.2 °F 93% 29.61 in 10.0 mi Calm Calm - N/A   Clear
1:16 PM 15.8 °F - 14.0 °F 93% 29.61 in 10.0 mi Calm Calm - N/A   Clear
1:36 PM 15.8 °F - 15.8 °F 100% 29.60 in 10.0 mi Calm Calm - N/A   Clear
1:56 PM 17.6 °F - 14.0 °F 86% 29.60 in 10.0 mi Calm Calm - N/A   Clear
2:16 PM 15.8 °F - 10.4 °F 79% 29.59 in 10.0 mi Calm Calm - N/A   Clear
2:36 PM 19.4 °F - 14.0 °F 80% 29.58 in 10.0 mi Calm Calm - N/A   Clear
2:56 PM 17.6 °F - 12.2 °F 79% 29.58 in 10.0 mi Calm Calm - N/A   Clear
3:16 PM 19.4 °F - 19.4 °F 100% 29.58 in 10.0 mi Calm Calm - N/A   Clear
3:36 PM 15.8 °F - 12.2 °F 86% 29.57 in 10.0 mi Calm Calm - N/A   Clear
3:56 PM 19.4 °F 12.8 °F 17.6 °F 93% 29.57 in 10.0 mi ENE 4.6 mph - N/A   Clear
4:16 PM 15.8 °F - 14.0 °F 93% 29.56 in 10.0 mi Calm Calm - N/A   Clear
4:36 PM 12.2 °F - 12.2 °F 100% 29.56 in 10.0 mi Calm Calm - N/A   Clear
4:56 PM 10.4 °F 4.0 °F 8.6 °F 92% 29.56 in 10.0 mi ESE 3.5 mph - N/A   Clear
5:16 PM 12.2 °F - 12.2 °F 100% 29.55 in 10.0 mi Calm Calm - N/A   Clear
5:36 PM 12.2 °F - 12.2 °F 100% 29.55 in 10.0 mi Calm Calm - N/A   Clear
5:56 PM 10.4 °F 4.0 °F 6.8 °F 85% 29.55 in 7.0 mi NE 3.5 mph - N/A   Clear
6:16 PM 8.6 °F - 6.8 °F 92% 29.54 in 10.0 mi Calm Calm - N/A   Clear
6:36 PM 6.8 °F -0.1 °F 1.4 °F 79% 29.54 in 10.0 mi East 3.5 mph - N/A   Clear
6:56 PM 5.0 °F -2.1 °F -2.2 °F 72% 29.53 in 10.0 mi ENE 3.5 mph - N/A   Clear
7:16 PM 6.8 °F - 5.0 °F 92% 29.53 in 10.0 mi Calm Calm - N/A   Clear
7:36 PM 3.2 °F - 1.4 °F 92% 29.53 in 10.0 mi Calm Calm - N/A   Clear
7:56 PM 1.4 °F - -0.4 °F 92% 29.52 in 10.0 mi Calm Calm - N/A   Clear
8:16 PM 1.4 °F - -2.2 °F 85% 29.52 in 10.0 mi Calm Calm - N/A   Clear
8:36 PM 1.4 °F - -2.2 °F 85% 29.52 in 10.0 mi Calm Calm - N/A   Clear
8:56 PM 1.4 °F -8.3 °F -2.2 °F 85% 29.52 in 10.0 mi ENE 4.6 mph - N/A   Clear
9:16 PM -0.4 °F - -9.4 °F 66% 29.51 in 10.0 mi Calm Calm - N/A   Clear
9:36 PM 1.4 °F - -2.2 °F 85% 29.51 in 10.0 mi Calm Calm - N/A   Clear
9:56 PM -0.4 °F -8.3 °F -9.4 °F 66% 29.50 in 10.0 mi ENE 3.5 mph - N/A   Clear
10:16 PM 1.4 °F -6.2 °F -0.4 °F 92% 29.50 in 10.0 mi NE 3.5 mph - N/A   Clear
10:36 PM -0.4 °F - -9.4 °F 66% 29.50 in 10.0 mi Calm Calm - N/A   Clear
10:56 PM -0.4 °F -8.3 °F -2.2 °F 92% 29.50 in 10.0 mi ENE 3.5 mph - N/A   Clear
11:16 PM -2.2 °F - -9.4 °F 71% 29.49 in 10.0 mi Calm Calm - N/A   Clear
11:36 PM -0.4 °F -10.4 °F -4.0 °F 85% 29.48 in 10.0 mi ENE 4.6 mph - N/A   Clear
11:56 PM -4.0 °F -14.6 °F -11.2 °F 71% 29.48 in 10.0 mi ENE 4.6 mph - N/A   Clear